GW5571 Weather Reports


Display with metric or nautical units.
time (UTC)temp
F
wind
direction
speed
MPH
gust
MPH
rain 1hr
in
rain 24hr
in
rain mn
in
humidity
%
barometer
mb
20260506211731 69 183 1.0 1.0 0.00 0.00 0.00 71 1007.2
20260506211228 69 255 0.0 2.0 0.00 0.00 0.00 71 1007.2
20260506210725 69 274 1.0 2.0 0.00 0.00 0.00 71 1007.1
20260506210222 69 149 0.0 6.0 0.00 0.00 0.00 71 1007.1
20260506205719 69 31 3.0 4.0 0.00 0.00 0.00 70 1007.1
20260506205214 69 147 1.0 4.0 0.00 0.00 0.00 71 1006.7
20260506204711 69 169 0.0 1.0 0.00 0.00 0.00 71 1007.1
20260506204209 69 176 1.0 3.0 0.00 0.00 0.00 72 1007.0
20260506203707 68 177 0.0 3.0 0.00 0.00 0.00 73 1007.0
20260506203203 68 136 0.0 1.0 0.00 0.00 0.00 72 1006.8
20260506202701 68 120 1.0 2.0 0.00 0.00 0.00 73 1007.1
20260506202157 68 147 0.0 1.0 0.00 0.00 0.00 73 1007.1
20260506201654 68 138 0.0 1.0 0.00 0.00 0.00 73 1007.1
20260506201150 68 180 0.0 6.0 0.00 0.00 0.00 73 1007.3
20260506200647 68 154 0.0 2.0 0.00 0.00 0.00 74 1007.2
20260506200144 68 152 0.0 4.0 0.00 0.00 0.00 73 1007.3
20260506195641 67 173 1.0 2.0 0.00 0.00 0.00 74 1007.4
20260506195137 67 159 4.0 6.0 0.00 0.00 0.00 74 1007.4
20260506194635 67 269 2.0 3.0 0.00 0.00 0.00 75 1007.6
20260506194131 67 235 0.0 2.0 0.00 0.00 0.00 75 1007.4
20260506193629 66 188 0.0 3.0 0.00 0.00 0.00 76 1007.7
20260506193126 66 141 2.0 3.0 0.00 0.00 0.00 77 1007.6
20260506192622 66 164 0.0 2.0 0.00 0.00 0.00 79 1007.6
20260506192118 65 110 0.0 3.0 0.00 0.00 0.00 80 1007.9
20260506191615 65 74 1.0 2.0 0.00 0.00 0.00 81 1007.7
20260506191111 65 213 1.0 1.0 0.00 0.00 0.00 81 1007.7
20260506190609 65 165 0.0 1.0 0.00 0.00 0.00 80 1007.8
20260506190105 66 128 0.0 2.0 0.00 0.00 0.00 77 1007.8
20260506185603 67 165 2.0 7.0 0.00 0.00 0.00 72 1008.0
20260506185059 68 160 2.0 6.0 0.00 0.00 0.00 71 1008.0
20260506184556 68 226 2.0 3.0 0.00 0.00 0.00 70 1008.0
20260506184054 67 152 0.0 7.0 0.00 0.00 0.00 71 1007.8
20260506183549 67 165 1.0 6.0 0.00 0.00 0.00 71 1007.8
20260506183046 67 193 1.0 7.0 0.00 0.00 0.00 71 1007.9
20260506182543 68 192 2.0 8.0 0.00 0.00 0.00 69 1008.0
20260506182041 68 247 1.0 8.0 0.00 0.00 0.00 68 1008.1
20260506181539 69 123 4.0 13.0 0.00 0.00 0.00 65 1008.3
20260506181035 70 306 3.0 8.0 0.00 0.00 0.00 62 1007.8
20260506180532 71 212 3.0 8.0 0.00 0.00 0.00 60 1008.0
20260506180028 71 178 7.0 19.0 0.00 0.00 0.00 61 1008.0
20260506175525 71 164 2.0 4.0 0.00 0.00 0.00 62 1008.1
20260506175021 71 213 1.0 4.0 0.00 0.00 0.00 61 1008.2
20260506174520 72 151 1.0 3.0 0.00 0.00 0.00 60 1008.2
20260506174015 71 92 1.0 4.0 0.00 0.00 0.00 60 1008.2
20260506173514 72 165 3.0 6.0 0.00 0.00 0.00 60 1008.2
20260506173010 72 112 6.0 8.0 0.00 0.00 0.00 61 1008.2
20260506172508 71 278 2.0 8.0 0.00 0.00 0.00 61 1008.3
20260506172004 71 107 1.0 9.0 0.00 0.00 0.00 61 1008.2
20260506171501 72 158 2.0 9.0 0.00 0.00 0.00 62 1008.3
20260506170959 72 206 2.0 4.0 0.00 0.00 0.00 61 1008.4
20260506170455 71 108 2.0 4.0 0.00 0.00 0.00 61 1008.5
20260506165954 70 196 2.0 4.0 0.00 0.00 0.00 62 1008.7
20260506165452 70 238 1.0 7.0 0.00 0.00 0.00 62 1008.6
20260506164948 70 142 2.0 3.0 0.00 0.00 0.00 62 1008.7
20260506164445 70 163 2.0 2.0 0.00 0.00 0.00 63 1009.1
20260506163942 70 157 0.0 4.0 0.00 0.00 0.00 62 1009.2
20260506163437 70 162 0.0 2.0 0.00 0.00 0.00 63 1009.3
20260506162932 70 177 1.0 2.0 0.00 0.00 0.00 63 1009.7
20260506162430 70 196 0.0 1.0 0.00 0.00 0.00 63 1009.6
20260506161927 70 130 2.0 6.0 0.00 0.00 0.00 62 1009.9
20260506161426 71 151 1.0 2.0 0.00 0.00 0.00 60 1009.8
20260506160923 71 217 2.0 2.0 0.00 0.00 0.00 58 1009.7
20260506160420 71 167 1.0 6.0 0.00 0.00 0.00 57 1009.6
20260506155918 71 168 1.0 3.0 0.00 0.00 0.00 56 1009.7
20260506155415 72 197 1.0 7.0 0.00 0.00 0.00 56 1009.5
20260506153536 74 167 2.0 2.0 0.00 0.00 0.00 53 1009.8
20260506153034 73 173 1.0 7.0 0.00 0.00 0.00 54 1009.6
20260506152531 73 129 2.0 6.0 0.00 0.00 0.00 54 1009.8
20260506152029 72 197 2.0 4.0 0.00 0.00 0.00 55 1010.0
20260506151526 72 134 4.0 4.0 0.00 0.00 0.00 55 1009.7
20260506151023 72 124 1.0 6.0 0.00 0.00 0.00 55 1009.8
20260506150519 72 165 0.0 2.0 0.00 0.00 0.00 55 1009.9
20260506150017 72 180 3.0 7.0 0.00 0.00 0.00 55 1009.8
20260506145513 72 202 1.0 2.0 0.00 0.00 0.00 55 1009.8
20260506145011 73 220 3.0 9.0 0.00 0.00 0.00 53 1009.8
20260506144507 73 146 11.0 18.0 0.00 0.00 0.00 52 1009.8
20260506144005 74 140 1.0 3.0 0.00 0.00 0.00 53 1009.7
20260506143502 73 170 1.0 3.0 0.00 0.00 0.00 53 1009.7
20260506143000 73 169 4.0 4.0 0.00 0.00 0.00 53 1009.8
20260506142458 73 218 2.0 3.0 0.00 0.00 0.00 54 1009.7
20260506141956 73 164 0.0 6.0 0.00 0.00 0.00 55 1009.8
20260506141453 73 168 1.0 4.0 0.00 0.00 0.00 55 1009.7
20260506140952 72 267 4.0 4.0 0.00 0.00 0.00 55 1009.7
20260506140448 73 163 2.0 4.0 0.00 0.00 0.00 56 1009.6
20260506135945 73 168 2.0 14.0 0.00 0.00 0.00 55 1009.5
20260506135443 73 165 2.0 10.0 0.00 0.00 0.00 55 1009.6
20260506134938 73 200 4.0 8.0 0.00 0.00 0.00 56 1009.7
20260506134435 73 174 1.0 6.0 0.00 0.00 0.00 57 1009.6
20260506133932 72 140 2.0 4.0 0.00 0.00 0.00 56 1010.0
20260506133429 72 148 2.0 8.0 0.00 0.00 0.00 56 1010.1
20260506132925 72 166 1.0 10.0 0.00 0.00 0.00 56 1010.1
20260506132422 72 250 4.0 6.0 0.00 0.00 0.00 57 1010.1
20260506131920 71 159 6.0 8.0 0.00 0.00 0.00 59 1010.2
20260506131416 70 162 2.0 8.0 0.00 0.00 0.00 60 1010.3
20260506130913 70 147 4.0 7.0 0.00 0.00 0.00 61 1010.4
20260506130410 70 173 2.0 6.0 0.00 0.00 0.00 62 1010.3
20260506125908 70 151 2.0 9.0 0.00 0.00 0.00 63 1010.4
20260506125406 69 135 2.0 3.0 0.00 0.00 0.00 64 1010.0
20260506124904 69 158 3.0 13.0 0.00 0.00 0.00 65 1010.2
20260506124401 68 159 4.0 6.0 0.00 0.00 0.00 67 1010.3
20260506123859 67 262 2.0 11.0 0.00 0.00 0.00 68 1010.1
20260506123357 66 139 2.0 6.0 0.00 0.00 0.00 69 1010.5
20260506122854 66 124 4.0 7.0 0.00 0.00 0.00 70 1010.2
20260506122350 66 160 1.0 4.0 0.00 0.00 0.00 71 1010.3
20260506121849 66 142 4.0 10.0 0.00 0.00 0.00 70 1010.5
20260506121345 66 196 1.0 15.0 0.00 0.00 0.00 71 1010.3
20260506120842 65 128 3.0 3.0 0.00 0.00 0.00 71 1010.2
20260506120340 65 119 5.0 9.0 0.00 0.00 0.00 72 1010.5
20260506115837 65 153 1.0 8.0 0.00 0.00 0.00 73 1010.5
20260506115335 65 147 5.0 8.0 0.00 0.00 0.00 72 1010.5
20260506114833 65 95 3.0 4.0 0.00 0.00 0.00 73 1010.6
20260506114331 64 130 3.0 7.0 0.00 0.00 0.00 73 1010.5
20260506113829 64 124 4.0 11.0 0.00 0.00 0.00 74 1010.6
20260506113326 64 191 2.0 8.0 0.00 0.00 0.00 75 1010.6
20260506112823 63 178 1.0 6.0 0.00 0.00 0.00 77 1010.5
20260506112320 62 179 2.0 3.0 0.00 0.00 0.00 78 1010.6
20260506111817 62 188 0.0 3.0 0.00 0.00 0.00 78 1010.6
20260506111315 62 181 2.0 3.0 0.00 0.00 0.00 78 1010.9
20260506110813 62 212 2.0 3.0 0.00 0.00 0.00 78 1010.7
20260506110309 62 146 1.0 3.0 0.00 0.00 0.00 79 1010.7
20260506105806 62 135 6.0 8.0 0.00 0.00 0.00 80 1010.4
20260506105305 62 163 2.0 4.0 0.00 0.00 0.00 80 1010.6
20260506104800 61 136 0.0 4.0 0.00 0.00 0.00 81 1010.6
20260506104258 61 109 1.0 4.0 0.00 0.00 0.00 81 1010.6
20260506103755 61 214 2.0 8.0 0.00 0.00 0.00 82 1010.6
20260506103253 61 167 2.0 6.0 0.00 0.00 0.00 82 1010.7
20260506102750 61 207 1.0 6.0 0.00 0.00 0.00 82 1010.6
20260506102248 61 161 0.0 4.0 0.00 0.00 0.00 82 1010.5
20260506101745 61 128 2.0 4.0 0.00 0.00 0.00 82 1010.6
20260506101241 61 162 4.0 6.0 0.00 0.00 0.00 82 1010.5
20260506100739 61 133 1.0 3.0 0.00 0.00 0.00 82 1010.4
20260506100237 61 187 2.0 3.0 0.00 0.00 0.00 82 1010.3
20260506095735 61 187 2.0 4.0 0.00 0.00 0.00 82 1010.3
20260506095232 61 150 0.0 2.0 0.00 0.00 0.00 82 1010.5
20260506094729 61 171 2.0 3.0 0.00 0.00 0.00 82 1010.3
20260506094227 61 141 2.0 4.0 0.00 0.00 0.00 82 1010.2
20260506093725 61 159 3.0 4.0 0.00 0.00 0.00 82 1010.3
20260506093222 61 170 0.0 3.0 0.00 0.00 0.00 81 1010.5
20260506092720 61 143 3.0 9.0 0.00 0.00 0.00 81 1010.5
20260506092217 61 155 1.0 6.0 0.00 0.00 0.00 81 1010.4
20260506091715 61 156 5.0 7.0 0.00 0.00 0.00 81 1010.3
20260506091212 61 157 1.0 7.0 0.00 0.00 0.00 81 1010.5
20260506090710 62 144 3.0 6.0 0.00 0.00 0.00 81 1010.3
20260506090206 62 219 2.0 9.0 0.00 0.00 0.00 81 1010.6
20260506085703 62 183 2.0 3.0 0.00 0.00 0.00 80 1010.5
20260506085159 62 168 3.0 6.0 0.00 0.00 0.00 80 1010.7
20260506084656 62 164 0.0 6.0 0.00 0.00 0.00 80 1010.6
20260506084152 62 183 1.0 6.0 0.00 0.00 0.00 79 1010.6
20260506083649 62 173 3.0 4.0 0.00 0.00 0.00 79 1010.5
20260506083147 62 130 3.0 8.0 0.00 0.00 0.00 79 1010.6
20260506082644 62 151 0.0 8.0 0.00 0.00 0.00 79 1010.7
20260506082145 62 181 5.0 7.0 0.00 0.00 0.00 79 1010.4
20260506081643 62 231 4.0 7.0 0.00 0.00 0.00 79 1010.7
20260506081141 63 152 0.0 3.0 0.00 0.00 0.00 78 1010.6
20260506080638 63 147 0.0 4.0 0.00 0.00 0.00 78 1010.7
20260506080134 63 203 2.0 6.0 0.00 0.00 0.00 78 1010.5
20260506073119 63 151 2.0 3.0 0.00 0.00 0.00 77 1010.5
20260506072615 63 170 4.0 7.0 0.00 0.00 0.00 77 1010.7
20260506072113 64 178 3.0 4.0 0.00 0.00 0.00 77 1011.0
20260506071610 64 144 3.0 4.0 0.00 0.00 0.00 77 1010.9
20260506071108 64 181 1.0 3.0 0.00 0.00 0.00 77 1010.7
20260506070605 64 125 2.0 3.0 0.00 0.00 0.00 77 1010.8
20260506062039 63 136 3.0 6.0 0.00 0.00 0.00 76 1010.9
20260506061535 63 156 1.0 4.0 0.00 0.00 0.00 77 1011.0
20260506061033 63 152 1.0 2.0 0.00 0.00 0.00 76 1010.8
20260506060531 63 150 2.0 4.0 0.00 0.00 0.00 76 1010.7
20260506051000 65 187 1.0 6.0 0.00 0.00 0.00 70 1011.2
20260506050458 66 159 3.0 6.0 0.00 0.00 0.00 70 1011.3
20260506044948 66 111 4.0 6.0 0.00 0.00 0.00 69 1011.3
20260506044446 66 154 2.0 7.0 0.00 0.00 0.00 68 1011.2
20260506043942 66 226 2.0 4.0 0.00 0.00 0.00 68 1011.3
20260506043440 66 132 0.0 6.0 0.00 0.00 0.00 68 1011.3
20260506042937 66 197 3.0 6.0 0.00 0.00 0.00 68 1011.3
20260506042437 66 154 3.0 3.0 0.00 0.00 0.00 67 1011.2
20260506041934 66 153 3.0 4.0 0.00 0.00 0.00 67 1011.2
20260506041432 66 270 1.0 9.0 0.00 0.00 0.00 67 1011.2
20260506040929 66 183 0.0 7.0 0.00 0.00 0.00 67 1011.4
20260506040426 66 183 1.0 7.0 0.00 0.00 0.00 67 1011.3
20260506035922 67 152 3.0 4.0 0.00 0.00 0.00 67 1011.1
20260506035420 66 142 2.0 8.0 0.00 0.00 0.00 67 1011.1
20260506034917 67 207 2.0 3.0 0.00 0.00 0.00 66 1011.2
20260506034414 67 152 2.0 4.0 0.00 0.00 0.00 66 1011.4
20260506033911 67 170 6.0 8.0 0.00 0.00 0.00 66 1011.3
20260506033408 67 199 3.0 4.0 0.00 0.00 0.00 66 1011.4
20260506032905 67 157 3.0 6.0 0.00 0.00 0.00 66 1011.2
20260506032402 67 161 2.0 10.0 0.00 0.00 0.00 66 1011.2
20260506031858 67 144 2.0 7.0 0.00 0.00 0.00 66 1011.3
20260506031356 67 155 3.0 6.0 0.00 0.00 0.00 66 1011.2
20260506030853 67 126 2.0 4.0 0.00 0.00 0.00 66 1011.2
20260506030351 67 156 1.0 7.0 0.00 0.00 0.00 65 1011.2
20260506025848 67 160 4.0 9.0 0.00 0.00 0.00 66 1011.4
20260506025344 67 170 2.0 6.0 0.00 0.00 0.00 66 1011.1
20260506024841 67 143 2.0 3.0 0.00 0.00 0.00 65 1011.2
20260506024338 67 209 2.0 8.0 0.00 0.00 0.00 65 1011.3
20260506023834 67 197 1.0 8.0 0.00 0.00 0.00 64 1011.4
20260506023331 67 156 1.0 4.0 0.00 0.00 0.00 64 1011.5
20260506022828 68 214 3.0 4.0 0.00 0.00 0.00 63 1011.5
20260506022326 68 163 6.0 8.0 0.00 0.00 0.00 63 1011.5
20260506021824 68 216 2.0 6.0 0.00 0.00 0.00 62 1011.4
20260506021320 68 207 5.0 8.0 0.00 0.00 0.00 61 1011.5
20260506020817 68 163 2.0 14.0 0.00 0.00 0.00 61 1011.3
20260506020315 68 156 3.0 6.0 0.00 0.00 0.00 60 1011.4
20260506015813 68 111 9.0 11.0 0.00 0.00 0.00 60 1011.3
20260506015310 68 158 5.0 11.0 0.00 0.00 0.00 59 1011.6
20260506014806 68 166 3.0 10.0 0.00 0.00 0.00 59 1011.6
20260506014303 68 213 4.0 9.0 0.00 0.00 0.00 59 1011.2
20260506013800 68 153 2.0 9.0 0.00 0.00 0.00 59 1011.2
20260506013257 68 197 4.0 10.0 0.00 0.00 0.00 58 1011.2
20260506012753 69 132 5.0 8.0 0.00 0.00 0.00 58 1011.1
20260506012250 69 229 4.0 9.0 0.00 0.00 0.00 57 1011.0
20260506011748 69 222 6.0 9.0 0.00 0.00 0.00 57 1011.0
20260506011244 69 157 4.0 10.0 0.00 0.00 0.00 56 1011.0
20260506010742 69 196 5.0 9.0 0.00 0.00 0.00 56 1011.0
20260506010239 69 134 6.0 10.0 0.00 0.00 0.00 56 1010.9
20260506005737 69 95 5.0 7.0 0.00 0.00 0.00 56 1010.9
20260506005233 69 151 4.0 6.0 0.00 0.00 0.00 56 1011.0
20260506004729 69 223 4.0 7.0 0.00 0.00 0.00 55 1010.9
20260506004227 70 146 0.0 1.0 0.00 0.00 0.00 55 1010.9
20260506003722 70 147 2.0 8.0 0.00 0.00 0.00 55 1010.7
20260506003219 70 151 2.0 10.0 0.00 0.00 0.00 54 1010.7
20260506002715 70 129 2.0 3.0 0.00 0.00 0.00 54 1010.7
20260506002212 71 171 6.0 8.0 0.00 0.00 0.00 54 1010.7
20260506001707 71 153 2.0 7.0 0.00 0.00 0.00 54 1010.6
20260506001205 71 151 3.0 6.0 0.00 0.00 0.00 53 1010.4
20260506000702 71 128 1.0 7.0 0.00 0.00 0.00 53 1010.5
20260506000159 72 230 3.0 6.0 0.00 0.00 0.00 52 1010.5
20260505235657 72 191 4.0 7.0 0.00 0.00 0.00 52 1010.3
20260505235155 72 164 3.0 7.0 0.00 0.00 0.00 51 1010.3
20260505234651 73 229 5.0 9.0 0.00 0.00 0.00 51 1010.2
20260505234148 73 214 3.0 7.0 0.00 0.00 0.00 50 1010.2
20260505233645 73 134 6.0 10.0 0.00 0.00 0.00 50 1010.0
20260505233142 74 156 5.0 8.0 0.00 0.00 0.00 49 1010.0
20260505232640 75 148 3.0 14.0 0.00 0.00 0.00 47 1010.0
20260505232137 76 159 6.0 9.0 0.00 0.00 0.00 45 1009.9
20260505231634 77 201 4.0 6.0 0.00 0.00 0.00 44 1009.7
20260505231133 77 146 5.0 11.0 0.00 0.00 0.00 43 1009.5
20260505230631 77 108 1.0 6.0 0.00 0.00 0.00 42 1009.6
20260505230126 77 131 2.0 3.0 0.00 0.00 0.00 42 1009.7
20260505225623 77 149 4.0 10.0 0.00 0.00 0.00 42 1009.6
20260505225119 77 199 1.0 8.0 0.00 0.00 0.00 43 1009.5
20260505224616 77 164 9.0 15.0 0.00 0.00 0.00 42 1009.4
20260505224114 78 193 3.0 9.0 0.00 0.00 0.00 42 1009.2
20260505223611 78 179 3.0 3.0 0.00 0.00 0.00 41 1009.2
20260505223107 79 127 10.0 14.0 0.00 0.00 0.00 41 1009.2
20260505222603 79 134 3.0 8.0 0.00 0.00 0.00 40 1009.1
20260505222059 81 152 1.0 8.0 0.00 0.00 0.00 37 1009.1
20260505221557 81 95 8.0 13.0 0.00 0.00 0.00 33 1009.0
20260505221053 81 189 2.0 18.0 0.00 0.00 0.00 31 1008.7
20260505220550 81 95 1.0 4.0 0.00 0.00 0.00 31 1008.9
20260505220048 82 186 1.0 16.0 0.00 0.00 0.00 31 1008.9
20260505215546 82 132 3.0 10.0 0.00 0.00 0.00 31 1009.0
20260505215044 82 159 1.0 8.0 0.00 0.00 0.00 31 1009.1
20260505214542 82 265 2.0 7.0 0.00 0.00 0.00 30 1008.8
20260505214038 82 212 4.0 10.0 0.00 0.00 0.00 29 1008.6
20260505213536 83 160 4.0 8.0 0.00 0.00 0.00 29 1009.0
20260505213032 83 161 1.0 7.0 0.00 0.00 0.00 29 1008.9
20260505212528 83 145 1.0 9.0 0.00 0.00 0.00 29 1008.5
20260505212026 84 235 2.0 7.0 0.00 0.00 0.00 29 1008.6